Location: Olsztyn
(53.7767°N, 20.4765°E)
Time: 20:52:08
(UTC+02:00)

Envisat - Pass Details

Date: 02 March 2024
Orbit: 762 x 764 km, 98.3° (Epoch: 21 April)

Event Time Altitude Azimuth Distance (km) Brightness Sun altitude
Rises 02:21:11 0° 21° (NNE) 3,245 7.1 -34.3°
Reaches altitude 10° 02:23:46 10° 31° (NNE) 2,314 6.2 -34.0°
Enters shadow 02:28:10 31° 91° (E) 1,317 4.5 -33.5°
